EW6304 Weather Reports


Display with metric or nautical units.
time (UTC)temp
F
wind
direction
speed
MPH
gust
MPH
rain 1hr
in
rain 24hr
in
rain mn
in
humidity
%
barometer
mb
20260504081752 43 281 0.0 1.0 0.00 0.00 0.00 71 1010.0
20260504081252 43 281 0.0 1.0 0.00 0.00 0.00 72 1010.0
20260504080758 43 281 0.0 0.0 0.00 0.00 0.00 70 1009.8
20260504080752 43 281 0.0 1.0 0.00 0.00 0.00 71 1009.9
20260504070253 42 281 0.0 1.0 0.00 0.00 0.00 71 1009.8
20260504060249 41 281 0.0 1.0 0.00 0.00 0.00 72 1009.7
20260504050245 39 281 0.0 1.0 0.00 0.00 0.00 73 1009.6
20260504045745 39 281 0.0 1.0 0.00 0.00 0.00 73 1009.7
20260504045247 39 281 0.0 1.0 0.00 0.00 0.00 73 1009.6
20260504044745 39 281 0.0 1.0 0.00 0.00 0.00 73 1009.6
20260504044251 39 281 0.0 1.0 0.00 0.00 0.00 73 1009.6
20260504044246 39 281 0.0 1.0 0.00 0.00 0.00 73 1009.7
20260504043247 38 281 0.0 1.0 0.00 0.00 0.00 73 1009.5
20260504042745 38 281 0.0 1.0 0.00 0.00 0.00 73 1009.5
20260504042246 38 281 0.0 1.0 0.00 0.00 0.00 73 1009.5
20260504041744 38 281 0.0 1.0 0.00 0.00 0.00 73 1009.5
20260504041241 38 281 0.0 1.0 0.00 0.00 0.00 73 1009.5
20260504040742 38 281 0.0 1.0 0.00 0.00 0.00 74 1009.4
20260504040240 38 281 0.0 1.0 0.00 0.00 0.00 74 1009.4
20260504035741 38 281 0.0 1.0 0.00 0.00 0.00 74 1009.4
20260504035242 38 281 0.0 1.0 0.00 0.00 0.00 74 1009.3
20260504034744 39 279 0.0 0.0 0.00 0.00 0.00 73 1009.2
20260504034740 38 281 0.0 1.0 0.00 0.00 0.00 74 1009.3
20260504033740 39 281 0.0 0.0 0.00 0.00 0.00 71 1009.2
20260504033239 39 281 0.0 0.0 0.00 0.00 0.00 71 1009.2
20260504032740 39 281 0.0 0.0 0.00 0.00 0.00 71 1009.2
20260504032240 39 281 0.0 0.0 0.00 0.00 0.00 71 1009.2
20260504031740 39 0 0.0 0.0 0.00 0.00 0.00 70 1009.2
20260504031238 39 279 0.0 0.0 0.00 0.00 0.00 70 1009.2
20260504030738 39 279 0.0 0.0 0.00 0.00 0.00 70 1009.2
20260504030238 39 279 0.0 0.0 0.00 0.00 0.00 70 1009.2
20260504025740 39 279 0.0 0.0 0.00 0.00 0.00 70 1009.2
20260504025242 40 279 0.0 0.0 0.00 0.00 0.00 70 1009.1
20260504025237 40 280 0.0 0.0 0.00 0.00 0.00 70 1009.1
20260504024238 40 279 0.0 0.0 0.00 0.00 0.00 69 1009.1
20260504023738 40 279 0.0 0.0 0.00 0.00 0.00 69 1009.1
20260504023237 40 279 0.0 0.0 0.00 0.00 0.00 68 1009.1
20260504022738 40 280 0.0 0.0 0.00 0.00 0.00 68 1009.1
20260504022235 41 279 0.0 1.0 0.00 0.00 0.00 68 1009.0
20260504021735 41 281 0.0 1.0 0.00 0.00 0.00 66 1009.0
20260504021237 41 281 0.0 1.0 0.00 0.00 0.00 66 1009.0
20260504020737 41 281 0.0 1.0 0.00 0.00 0.00 65 1008.9
20260504020236 42 281 0.0 1.0 0.00 0.00 0.00 65 1009.0
20260504015734 42 281 0.0 0.0 0.00 0.00 0.00 64 1008.9
20260504015236 42 0 0.0 0.0 0.00 0.00 0.00 63 1008.9
20260504014736 43 0 0.0 0.0 0.00 0.00 0.00 62 1008.8
20260504014234 43 0 0.0 0.0 0.00 0.00 0.00 61 1008.8
20260504013733 43 0 0.0 1.0 0.00 0.00 0.00 61 1008.7
20260504013233 44 279 0.0 1.0 0.00 0.00 0.00 60 1008.7
20260504012734 44 280 0.0 0.0 0.00 0.00 0.00 58 1008.6
20260504012235 44 280 0.0 0.0 0.00 0.00 0.00 58 1008.6
20260504011733 45 280 0.0 0.0 0.00 0.00 0.00 56 1008.6
20260504010733 46 281 0.0 0.0 0.00 0.00 0.00 55 1008.4
20260504010235 46 281 0.0 0.0 0.00 0.00 0.00 54 1008.5
20260504005732 47 281 0.0 0.0 0.00 0.00 0.00 52 1008.4
20260504005234 47 281 0.0 0.0 0.00 0.00 0.00 51 1008.2
20260504004733 48 281 0.0 1.0 0.00 0.00 0.00 49 1008.2
20260504004238 50 281 0.0 1.0 0.00 0.00 0.00 47 1008.0
20260504004233 49 281 0.0 1.0 0.00 0.00 0.00 49 1008.2
20260504003851 51 281 1.0 5.0 0.00 0.00 0.00 45 1008.0
20260504002732 51 280 1.0 5.0 0.00 0.00 0.00 44 1007.9
20260504002233 51 276 1.0 7.0 0.00 0.00 0.00 43 1007.9
20260504001734 51 277 2.0 7.0 0.00 0.00 0.00 43 1007.8
20260504001238 52 263 2.0 4.0 0.00 0.00 0.00 42 1007.8
20260504001234 51 275 2.0 6.0 0.00 0.00 0.00 42 1007.7
20260504000234 52 249 2.0 8.0 0.00 0.00 0.00 42 1007.7
20260503235734 52 253 2.0 8.0 0.00 0.00 0.00 42 1007.6
20260503235232 52 293 3.0 8.0 0.00 0.00 0.00 41 1007.5
20260503234735 52 276 4.0 10.0 0.00 0.00 0.00 41 1007.4
20260503234233 53 319 4.0 10.0 0.00 0.00 0.00 41 1007.3
20260503233737 53 296 3.0 7.0 0.00 0.00 0.00 41 1007.2
20260503233732 52 307 3.0 10.0 0.00 0.00 0.00 41 1007.3
20260503232732 53 262 3.0 8.0 0.00 0.00 0.00 41 1007.1
20260503232234 53 315 3.0 8.0 0.00 0.00 0.00 41 1007.0
20260503231734 53 294 3.0 9.0 0.00 0.00 0.00 40 1007.0
20260503231236 53 295 3.0 9.0 0.00 0.00 0.00 40 1006.9
20260503231232 53 242 4.0 10.0 0.00 0.00 0.00 41 1006.9
20260503230232 53 250 5.0 13.0 0.00 0.00 0.00 39 1006.9
20260503225736 53 337 6.0 14.0 0.00 0.00 0.00 39 1006.7
20260503225732 53 274 5.0 13.0 0.00 0.00 0.00 39 1006.8
20260503225350 54 321 5.0 12.0 0.00 0.00 0.00 40 1006.5
20260503224731 54 307 6.0 14.0 0.00 0.00 0.00 38 1006.6
20260503223731 53 265 6.0 16.0 0.00 0.00 0.00 39 1006.5
20260503223237 53 254 6.0 16.0 0.00 0.00 0.00 40 1006.3
20260503223230 53 305 6.0 16.0 0.00 0.00 0.00 40 1006.4
20260503222231 53 336 6.0 14.0 0.00 0.00 0.00 40 1006.3
20260503221729 54 226 6.0 13.0 0.00 0.00 0.00 40 1006.2
20260503221228 54 292 5.0 15.0 0.00 0.00 0.00 41 1006.0
20260503220729 54 286 6.0 15.0 0.00 0.00 0.00 40 1006.0
20260503220234 54 262 5.0 12.0 0.00 0.00 0.00 39 1005.8
20260503220229 54 316 5.0 13.0 0.00 0.00 0.00 39 1006.0
20260503215230 54 244 6.0 14.0 0.00 0.00 0.00 39 1005.7
20260503214731 54 287 7.0 15.0 0.00 0.00 0.00 38 1005.6
20260503214228 54 311 7.0 18.0 0.00 0.00 0.00 38 1005.5
20260503213728 54 315 8.0 18.0 0.00 0.00 0.00 38 1005.6
20260503213228 54 331 6.0 17.0 0.00 0.00 0.00 39 1005.5
20260503212729 55 261 6.0 17.0 0.00 0.00 0.00 40 1005.4
20260503212229 55 269 5.0 13.0 0.00 0.00 0.00 39 1005.3
20260503211726 55 292 5.0 13.0 0.00 0.00 0.00 40 1005.2
20260503211227 55 306 6.0 15.0 0.00 0.00 0.00 39 1005.0
20260503210727 55 226 6.0 15.0 0.00 0.00 0.00 39 1005.1
20260503210227 54 298 6.0 15.0 0.00 0.00 0.00 41 1004.9
20260503205731 54 304 5.0 14.0 0.00 0.00 0.00 41 1004.8
20260503205726 54 306 6.0 14.0 0.00 0.00 0.00 42 1005.0
20260503204732 55 339 5.0 14.0 0.00 0.00 0.00 43 1004.8
20260503204727 55 293 5.0 14.0 0.00 0.00 0.00 41 1004.7
20260503203724 54 290 5.0 14.0 0.00 0.00 0.00 43 1004.8
20260503203225 55 313 5.0 12.0 0.00 0.00 0.00 43 1004.7
20260503202724 55 278 6.0 12.0 0.00 0.00 0.00 43 1004.7
20260503202225 55 247 6.0 16.0 0.00 0.00 0.00 42 1004.6
20260503201726 55 338 6.0 16.0 0.00 0.00 0.00 43 1004.6
20260503201224 55 307 6.0 16.0 0.00 0.00 0.00 43 1004.6
20260503200724 55 312 5.0 16.0 0.00 0.00 0.00 45 1004.5
20260503200230 55 311 5.0 11.0 0.00 0.00 0.00 44 1004.5
20260503200225 55 289 5.0 13.0 0.00 0.00 0.00 45 1004.5
20260503195224 55 334 5.0 12.0 0.00 0.00 0.00 44 1004.6
20260503194723 54 196 6.0 16.0 0.00 0.00 0.00 46 1004.6
20260503194230 55 280 5.0 15.0 0.00 0.00 0.00 47 1004.6
20260503194224 54 300 5.0 16.0 0.00 0.00 0.00 45 1004.6
20260503193724 55 281 5.0 15.0 0.00 0.00 0.00 48 1004.6
20260503193344 55 313 5.0 13.0 0.00 0.00 0.00 47 1004.6
20260503192225 55 314 5.0 13.0 0.00 0.00 0.00 47 1004.6
20260503191723 54 270 5.0 11.0 0.00 0.00 0.00 47 1004.8
20260503191222 54 339 5.0 11.0 0.00 0.00 0.00 50 1004.8
20260503190723 53 294 4.0 11.0 0.00 0.00 0.00 50 1004.8
20260503190223 53 301 3.0 7.0 0.00 0.00 0.00 52 1004.8
20260503185722 52 306 5.0 12.0 0.00 0.00 0.00 52 1004.8
20260503185223 52 315 6.0 16.0 0.00 0.00 0.00 51 1004.9
20260503184720 53 317 4.0 16.0 0.00 0.00 0.00 51 1004.9
20260503184221 53 311 3.0 9.0 0.00 0.00 0.00 52 1004.8
20260503183720 53 313 5.0 15.0 0.00 0.00 0.00 52 1004.8
20260503183221 53 339 7.0 18.0 0.00 0.00 0.00 52 1004.9
20260503182720 53 322 7.0 18.0 0.00 0.00 0.00 52 1004.8
20260503182226 53 273 6.0 15.0 0.00 0.00 0.00 51 1004.7
20260503182220 53 287 6.0 14.0 0.00 0.00 0.00 50 1004.8
20260503181219 53 311 5.0 15.0 0.00 0.00 0.00 50 1004.7
20260503180729 52 303 5.0 15.0 0.00 0.00 0.00 54 1004.8
20260503180720 53 309 4.0 12.0 0.00 0.00 0.00 52 1004.8
20260503180221 53 315 5.0 12.0 0.00 0.00 0.00 53 1004.7
20260503175219 52 333 4.0 15.0 0.00 0.00 0.00 53 1004.7
20260503174721 51 327 3.0 10.0 0.00 0.00 0.00 54 1004.7
20260503174221 51 319 3.0 8.0 0.00 0.00 0.00 56 1004.8
20260503173723 51 230 6.0 18.0 0.00 0.00 0.00 56 1004.8
20260503173718 51 309 5.0 18.0 0.00 0.00 0.00 55 1004.8
20260503173219 51 311 6.0 18.0 0.00 0.00 0.00 55 1004.8
20260503172217 51 325 6.0 18.0 0.00 0.00 0.00 59 1004.8
20260503171718 51 276 5.0 12.0 0.00 0.00 0.00 60 1004.8
20260503171220 51 308 5.0 12.0 0.00 0.00 0.00 62 1004.8
20260503170719 51 328 5.0 15.0 0.00 0.00 0.00 62 1004.8
20260503170219 51 324 6.0 15.0 0.00 0.00 0.00 63 1004.8
20260503160216 50 306 6.0 15.0 0.00 0.00 0.00 71 1004.4
20260503150212 48 343 6.0 16.0 0.00 0.00 0.00 76 1004.6
20260503140208 47 230 5.0 14.0 0.00 0.00 0.00 77 1004.4
20260503131324 47 304 5.0 10.0 0.00 0.00 0.00 75 1004.7
20260503130206 47 294 5.0 13.0 0.00 0.00 0.00 74 1004.6
20260503120204 46 323 5.0 12.0 0.00 0.00 0.00 76 1005.1
20260503120158 47 296 4.0 10.0 0.00 0.00 0.00 76 1005.0
20260503110654 45 321 3.0 9.0 0.00 0.00 0.00 78 1005.3
20260503110155 46 285 2.0 7.0 0.00 0.00 0.00 78 1005.4
20260503100154 46 265 3.0 8.0 0.00 0.00 0.00 78 1005.3
20260503090150 47 288 2.0 8.0 0.00 0.00 0.00 79 1005.6